Muldoon, Texas
Current Conditions -  °F | °C
As of 2:15 AM on Sunday 23 Nov 2014 (Local Time) from K3T5 Reporting Station
Overcast Overcast  
Wind Chill: 62°   Ceiling: 1000
Heat Index: 62°   Visibility: 10mi
Dew Point: 61°   Wind: 0mph
Humidity: 98%   Direction: NA
Pressure: 29.64"   Gusts: NA
Location:  29.82°N, 97.07°W
Report Text: K3T5 230815Z AUTO 00000KT 10SM OVC010 17/16 A2964 RMK AO2 T01650162
Loading
Personal Weather Stations






























Interactive Weather Map New forecast layout! Learn more

10-Day Weather Forecast

Advertisements
Track Severe Weather on mobile